Location: Coupvray
(48.8929°N, 2.7967°E)
Time: 13:38:24
(UTC+00:00)

Altair 2 - Pass Details

Date: 22 January 2021
Orbit: 837 x 949 km, 90.2° (Epoch: 28 February)

Event Time Altitude Azimuth Distance (km) Brightness Sun altitude
Rises 19:25:12 0° 216° (SW) 3,388 11.3 -28.4°
Reaches altitude 10° 19:28:06 10° 232° (SW) 2,452 10.7 -28.8°
Maximum altitude 19:32:20 22° 282° (WNW) 1,741 10.0 -29.5°
Drops below altitude 10° 19:36:35 10° 333° (NNW) 2,467 10.4 -30.2°
Sets 19:39:32 0° 349° (NNW) 3,415 11.1 -30.7°
